map of SIP home
Great Circle Mapper logo
SIP - Airport
Location
City:  Simferopol, Adygea, Ukraine
ICAO / IATA:UKFF / SIP

Details
Type:Airport (Aerodrome, Airfield)
Use:Public/Civil, International (customs port of entry)
Latitude:4503'08"N (45.052222)
Longitude:3358'31"E (33.975139)
Datum:WGS 1984
Elevation:639 ft (195 m)
Runways:1
Longest:12142 × 197 ft (3701 × 60 m), paved

Time
Time Zone:UTC+2 (DST+3)
Local Time:

Weather
METAR:UKFF 281600Z 07009MPS 040V100 CAVOK 26/11 Q1014 01010065 NOSIG
TAF:UKFF 281106Z 2812/2912 07010G15MPS 9999 SCT020CB
BECMG 2816/2818 08005G10MPS
BECMG 2905/2907 06010G15MPS TX32/2812Z TN18/2902Z

Related Locations
Nearby:
Farthest:NTAV: 10968 mi / 17651 km
Raivavae, Tubuai Islands, Austral Islands, PF

Find:

   beyond  
but within

Other Information
Maps:
NOTAMs:
Links:
Sources:

  
flag of Ukraine   

Sectional Chart

Flight Planning
at skyvector.com

Satellite Image

Google Maps Satellite View

 

Copyright © 2004-2014 Karl L. Swartz. All rights reserved.
The Great Circle Mapper name and logo are trademarks of the Great Circle Mapper.
All other trademarks mentioned herein belong to their respective owners.
Please see credits for attibutions and further copyright information.

  Follow gcmap on Facebook Follow gcmap on Twitter

hCard Microformat

Geo Microformat